Wind_Speed
4 5 5 6 6 6 6 6 6 6 6 6 7 7 7 8 8 8 8 8 8 8 8 8 9 9 9 9 9 9 9 9 9 9 9 8 8 7 6 6 5 6 6
5 6 6 7 7 7 6 6 5 5 5 5 5 5 5 5 6 6 6 6 6 6 7 7 7 7 7 8 7 7 7 7 7 7 7 7 7 6 5 5 4 5 6
7 7 7 8 8 8 7 6 6 5 5 4 4 4 4 5 5 5 5 5 5 5 5 5 5 5 5 5 5 5 5 5 5 5 5 5 5 5 5 5 4 4 5
8 9 9 9 9 9 8 8 7 6 6 5 5 5 6 6 6 6 5 5 5 5 5 5 4 4 4 3 3 3 3 3 3 3 3 4 4 3 4 4 4 4 5
10 10 11 11 10 10 9 8 8 7 7 7 7 7 8 8 8 7 7 7 7 6 6 6 5 5 4 4 3 3 2 1 1 0 1 1 2 2 2 3 4 3 3
11 12 12 12 12 11 10 10 9 9 9 9 9 10 10 10 10 10 9 9 9 9 8 8 8 7 7 6 5 5 4 4 3 2 2 2 1 1 1 2 2 3 2
12 12 13 13 12 12 11 11 12 12 12 12 12 12 13 13 13 13 13 13 12 12 12 11 11 10 10 9 8 8 7 7 6 5 5 4 4 3 3 2 2 2 2
12 13 14 14 13 13 13 13 13 14 14 14 14 14 15 15 15 15 15 16 15 15 15 15 14 14 13 12 12 11 10 10 10 9 8 7 6 6 5 4 4 4 4
13 14 14 15 15 15 15 14 14 15 15 16 16 16 16 17 17 17 17 18 18 18 18 18 18 17 16 16 15 14 14 13 13 12 11 11 10 9 8 7 7 6 6
14 15 16 17 17 17 17 17 16 17 17 17 18 18 18 18 18 19 19 19 19 19 19 19 19 20 19 19 18 17 17 17 16 16 15 14 13 12 11 11 10 9 9
16 17 18 18 19 19 19 20 20 19 19 19 19 19 19 20 20 20 20 20 20 20 20 19 20 20 20 20 19 20 19 19 19 19 19 18 17 16 15 14 14 13 12
19 20 20 21 21 22 22 23 23 22 21 21 21 21 21 21 21 21 21 21 20 20 20 19 20 21 21 21 21 21 22 21 21 21 21 21 20 20 19 18 18 17 16
22 23 23 23 24 25 25 26 25 24 23 23 23 23 22 22 22 22 22 22 22 21 21 21 21 22 22 22 22 22 23 22 23 23 23 23 24 23 22 22 21 21 20
25 25 26 26 27 27 27 27 27 26 25 25 25 25 25 24 24 23 23 23 23 23 23 22 22 22 22 22 22 22 22 23 22 23 23 24 24 25 25 25 25 25 24
26 27 28 29 30 31 30 30 29 28 28 28 27 27 27 26 25 24 23 24 25 24 24 24 23 23 22 22 22 22 22 21 22 22 23 23 24 25 25 25 25 26 26
27 28 29 31 32 35 35 33 33 32 32 32 30 29 27 27 27 26 25 25 25 25 24 24 24 23 22 22 22 22 22 21 21 21 22 21 23 24 25 26 26 26 26
29 30 32 33 32 34 36 35 35 33 33 33 32 30 28 28 28 27 26 26 25 26 25 25 25 24 23 23 22 22 21 21 21 21 21 21 21 22 23 25 27 27 27
30 32 34 35 34 35 36 36 36 35 35 34 32 30 29 30 30 28 27 26 25 26 26 26 25 24 23 23 23 22 21 21 21 21 21 20 20 20 21 22 24 25 26
34 36 37 37 36 37 36 36 34 32 32 32 32 31 31 31 30 29 28 27 27 27 26 26 25 25 24 23 22 22 21 20 20 20 20 19 19 19 20 21 22 23 25
36 38 38 37 37 35 36 36 35 32 29 29 31 29 28 29 29 29 28 27 27 26 27 26 26 25 24 23 22 22 21 20 20 20 20 19 19 19 19 20 21 22 23
38 38 37 35 36 36 34 31 28 26 26 28 27 26 26 27 29 28 27 27 27 27 27 25 25 25 25 24 23 23 22 22 21 20 20 19 19 19 18 18 19 20 22
37 36 35 35 35 33 31 28 25 25 25 25 26 26 26 27 27 28 28 28 27 26 26 27 26 25 25 25 24 24 23 23 23 22 21 20 20 19 19 18 18 18 20
37 38 36 35 35 32 30 29 30 28 26 26 26 27 28 28 27 28 27 27 28 27 27 27 27 26 26 25 25 25 25 24 24 23 22 21 20 20 19 19 18 18 19
36 35 36 36 35 33 33 33 32 30 29 29 29 30 31 32 31 30 30 30 30 30 29 28 28 28 27 26 26 26 26 26 25 24 24 23 21 20 20 20 20 19 19
34 35 36 37 37 37 37 36 35 35 33 33 33 34 36 37 36 36 35 34 33 33 32 31 31 30 30 29 28 28 28 27 27 25 25 24 23 22 21 20 20 20 20
34 35 36 37 39 40 40 40 40 40 39 38 38 39 39 39 39 40 39 39 38 37 36 36 34 33 33 33 32 31 30 29 28 28 27 27 26 24 23 22 21 21 20
Wind_Direction
333 338 344 344 347 355 3 15 29 41 48 50 49 47 43 37 34 32 32 32 32 32 33 36 39 43 45 47 50 54 58 61 64 68 71 75 79 82 84 89 102 118 127
307 313 320 323 325 331 340 350 360 11 20 26 30 31 29 23 18 15 15 17 20 23 25 26 29 33 37 40 43 47 51 54 58 64 68 70 76 83 87 90 104 123 134
299 303 307 309 313 314 320 327 334 340 346 350 354 356 358 355 350 348 349 351 356 2 7 11 14 17 20 25 32 37 42 50 56 61 67 70 75 85 93 96 108 128 139
300 301 301 302 305 307 310 313 316 318 319 320 322 324 325 326 325 323 322 325 328 332 337 342 345 347 351 353 1 15 27 38 55 63 71 80 84 90 101 106 110 128 140
303 300 298 297 300 302 303 304 304 304 303 303 305 307 308 308 308 308 307 306 307 309 312 314 313 313 313 313 311 308 313 331 348 61 101 106 108 107 114 118 116 122 142
305 301 296 294 295 296 296 296 296 295 294 295 297 298 298 299 299 298 299 297 296 295 296 296 296 293 292 291 288 284 278 271 269 262 246 228 217 191 165 151 138 131 140
305 301 297 293 292 291 291 290 291 291 292 292 292 293 292 292 293 293 293 292 290 289 288 288 288 286 284 282 279 277 275 271 267 263 259 253 248 245 236 217 198 180 170
303 302 299 295 291 290 289 288 289 290 291 291 291 291 291 291 291 290 289 289 287 286 285 284 282 282 280 278 276 274 273 271 269 265 262 258 255 252 249 242 229 219 211
303 301 300 296 292 291 288 287 288 289 289 290 290 290 289 289 289 288 287 286 285 283 282 281 280 278 277 276 275 273 271 270 269 267 264 261 258 254 252 248 241 234 230
303 301 299 298 295 292 289 287 288 288 288 289 290 291 290 289 288 288 287 285 284 282 281 280 279 278 276 275 275 273 271 269 267 266 264 262 260 257 253 252 248 243 239
304 303 298 295 293 291 288 287 287 286 287 288 289 290 289 288 288 287 286 285 283 281 280 279 278 277 276 275 275 273 271 271 267 264 262 260 258 256 254 253 250 248 245
301 299 296 294 292 289 287 285 283 284 285 285 286 288 288 288 288 288 287 286 285 283 281 278 277 276 275 274 274 273 271 270 269 264 262 260 257 254 253 252 249 247 247
299 297 294 294 290 288 285 284 280 280 282 282 283 284 286 286 287 287 287 286 285 284 281 278 276 275 274 274 273 272 271 271 269 266 263 260 256 253 253 253 249 247 245
297 294 291 292 288 284 282 280 275 275 276 278 279 281 282 283 286 286 286 285 284 283 281 280 277 276 275 275 275 275 274 271 270 267 265 262 257 254 254 254 251 249 245
297 296 291 291 289 285 281 277 273 272 271 270 272 275 278 281 283 284 283 282 282 282 281 281 279 277 276 276 276 275 275 273 269 269 269 264 258 256 255 255 254 252 248
293 291 292 294 290 289 285 280 272 271 267 266 264 267 272 278 279 279 279 279 280 279 279 280 279 277 275 274 274 273 271 271 269 268 266 265 262 259 257 254 254 254 251
292 294 294 294 292 291 288 285 275 269 267 264 261 261 266 271 274 274 274 275 277 278 277 277 276 275 273 272 273 272 270 268 268 267 267 267 264 262 260 257 255 254 252
293 296 295 295 294 292 289 285 277 271 269 266 261 259 262 265 268 270 270 273 275 277 275 274 273 271 270 269 270 270 269 266 266 267 267 267 266 263 262 263 258 255 253
294 295 296 297 294 292 290 287 285 279 275 267 260 260 261 263 265 265 269 271 271 272 272 270 269 269 267 266 265 266 266 265 264 265 266 266 267 266 265 266 262 257 255
291 293 295 296 295 295 293 288 286 285 279 272 266 262 261 262 263 265 268 271 272 271 270 268 267 266 264 264 263 263 262 261 261 262 264 265 266 267 268 266 265 260 258
290 294 293 293 295 295 292 288 288 283 282 279 271 265 265 266 266 267 269 271 270 269 268 266 266 264 263 262 262 261 260 259 259 259 261 263 265 267 269 268 265 263 259
288 291 293 293 296 297 293 290 291 289 285 278 272 270 271 274 275 272 272 270 268 268 266 266 263 262 261 259 259 259 259 259 258 258 258 261 264 266 267 268 267 266 264
287 290 290 295 296 297 295 295 294 293 288 282 277 276 276 277 279 277 273 269 268 269 269 266 264 262 259 257 257 257 257 257 257 258 258 260 262 264 265 265 266 267 267
287 288 289 291 293 293 294 293 291 290 286 285 282 277 276 277 276 275 273 271 270 269 267 264 263 261 260 258 256 255 255 255 255 256 257 258 261 262 264 263 263 265 267
290 289 289 289 289 290 291 290 290 288 283 282 280 278 277 276 273 271 271 270 267 267 265 263 262 261 260 258 257 255 253 251 251 253 255 257 259 260 262 263 262 262 264
292 291 291 290 288 288 289 288 289 288 285 282 280 278 276 273 271 269 269 268 265 265 263 262 261 260 259 258 256 254 253 251 249 250 252 255 257 259 260 262 262 263 263
Height
5907 5906 5906 5905 5904 5903 5901 5900 5899 5898 5898 5897 5897 5896 5896 5896 5895 5895 5895 5895 5895 5894 5894 5894 5893 5893 5893 5892 5892 5891 5891 5890 5889 5889 5888 5888 5888 5888 5888 5888 5888 5888 5889
5907 5906 5906 5905 5904 5903 5901 5900 5899 5898 5897 5897 5897 5896 5896 5896 5895 5895 5895 5894 5894 5894 5894 5894 5893 5893 5892 5892 5892 5892 5891 5891 5890 5890 5889 5889 5889 5889 5889 5889 5889 5889 5890
5906 5906 5905 5904 5903 5902 5901 5899 5898 5897 5897 5896 5896 5896 5895 5895 5895 5894 5894 5894 5893 5893 5893 5893 5893 5893 5892 5892 5892 5892 5892 5891 5891 5891 5890 5890 5890 5890 5889 5890 5890 5890 5890
5906 5905 5904 5903 5902 5901 5900 5899 5898 5897 5896 5895 5895 5895 5894 5894 5893 5893 5893 5892 5892 5892 5892 5892 5892 5892 5892 5892 5892 5892 5892 5891 5891 5891 5891 5891 5891 5890 5890 5890 5890 5890 5890
5905 5904 5903 5902 5901 5900 5899 5898 5897 5896 5895 5894 5894 5893 5893 5892 5892 5892 5891 5891 5891 5891 5891 5891 5891 5891 5891 5891 5891 5891 5891 5891 5891 5891 5891 5891 5891 5891 5890 5890 5890 5890 5890
5904 5903 5902 5901 5900 5899 5898 5897 5896 5895 5894 5893 5893 5892 5891 5891 5890 5890 5890 5889 5889 5889 5889 5889 5889 5890 5890 5890 5890 5890 5890 5890 5890 5890 5890 5890 5890 5890 5890 5890 5890 5890 5890
5903 5902 5901 5900 5898 5897 5896 5895 5894 5893 5893 5892 5891 5890 5890 5889 5888 5888 5887 5887 5887 5887 5887 5887 5887 5887 5888 5888 5888 5888 5888 5888 5888 5888 5889 5889 5889 5889 5889 5889 5889 5889 5890
5902 5901 5900 5898 5897 5896 5895 5893 5893 5892 5891 5890 5889 5888 5887 5887 5886 5885 5885 5884 5884 5884 5884 5884 5884 5884 5885 5885 5885 5885 5885 5885 5885 5886 5886 5887 5887 5887 5887 5888 5888 5888 5889
5900 5899 5898 5897 5895 5894 5893 5892 5891 5890 5889 5888 5887 5886 5885 5884 5883 5883 5882 5881 5881 5881 5880 5880 5880 5881 5881 5881 5882 5882 5883 5883 5883 5883 5883 5884 5885 5885 5886 5886 5886 5887 5888
5899 5898 5896 5895 5893 5892 5891 5889 5888 5887 5886 5885 5884 5883 5882 5881 5880 5879 5879 5878 5877 5877 5877 5877 5876 5877 5877 5877 5878 5879 5879 5879 5880 5880 5880 5881 5882 5882 5883 5884 5884 5885 5886
5896 5895 5893 5892 5891 5889 5888 5887 5885 5884 5883 5882 5880 5880 5878 5877 5876 5875 5875 5874 5873 5873 5873 5873 5872 5872 5873 5873 5873 5874 5874 5875 5876 5876 5876 5877 5878 5879 5880 5881 5882 5883 5884
5893 5891 5890 5888 5887 5885 5884 5883 5881 5880 5878 5877 5876 5875 5874 5873 5872 5871 5870 5870 5869 5869 5869 5868 5868 5868 5868 5868 5869 5869 5869 5870 5870 5871 5872 5873 5874 5875 5875 5876 5878 5879 5880
5889 5887 5885 5884 5882 5881 5879 5878 5876 5875 5874 5873 5871 5870 5869 5868 5867 5867 5866 5865 5865 5864 5864 5864 5864 5863 5863 5864 5863 5864 5864 5865 5865 5866 5867 5867 5868 5869 5870 5871 5872 5874 5876
5884 5882 5880 5879 5877 5875 5873 5871 5870 5870 5868 5867 5866 5865 5864 5863 5862 5862 5861 5861 5860 5859 5859 5859 5859 5858 5858 5858 5858 5858 5859 5859 5859 5860 5860 5861 5862 5864 5865 5866 5868 5869 5871
5879 5877 5875 5873 5870 5868 5866 5864 5863 5863 5861 5859 5859 5858 5857 5856 5857 5856 5856 5855 5854 5854 5853 5853 5853 5853 5853 5853 5853 5853 5853 5853 5854 5854 5855 5855 5856 5857 5859 5860 5862 5863 5865
5873 5871 5869 5866 5864 5861 5859 5857 5856 5854 5853 5852 5851 5850 5850 5850 5850 5850 5849 5849 5848 5848 5848 5847 5847 5847 5847 5848 5848 5848 5848 5848 5848 5849 5849 5850 5850 5852 5853 5854 5856 5857 5859
5867 5865 5862 5859 5856 5854 5851 5848 5846 5844 5844 5844 5842 5841 5842 5842 5843 5843 5843 5842 5842 5842 5842 5842 5842 5841 5841 5842 5842 5842 5843 5843 5843 5843 5844 5844 5845 5846 5847 5848 5850 5851 5852
5860 5857 5854 5852 5849 5846 5843 5840 5837 5834 5835 5835 5833 5833 5834 5834 5835 5835 5836 5836 5836 5835 5835 5836 5836 5836 5836 5836 5836 5837 5837 5838 5838 5838 5838 5839 5840 5841 5842 5843 5844 5845 5846
5854 5851 5847 5844 5841 5838 5836 5832 5829 5827 5826 5825 5825 5825 5826 5826 5827 5828 5829 5829 5829 5829 5829 5829 5830 5830 5830 5830 5831 5831 5832 5832 5833 5833 5834 5834 5835 5836 5836 5837 5838 5839 5840
5847 5843 5840 5836 5833 5828 5826 5824 5822 5818 5818 5818 5817 5816 5817 5818 5819 5821 5821 5821 5822 5822 5822 5822 5823 5824 5825 5825 5825 5826 5826 5827 5828 5828 5829 5829 5830 5831 5831 5832 5833 5833 5835
5839 5835 5832 5828 5824 5820 5817 5814 5811 5810 5811 5811 5810 5809 5810 5811 5812 5813 5813 5813 5814 5815 5815 5815 5816 5817 5818 5819 5820 5820 5821 5822 5823 5823 5824 5825 5825 5826 5826 5827 5827 5828 5829
5831 5828 5825 5821 5818 5814 5809 5807 5806 5807 5806 5805 5805 5804 5804 5805 5805 5805 5805 5806 5806 5807 5807 5808 5809 5810 5811 5812 5813 5814 5815 5816 5817 5818 5818 5819 5820 5821 5822 5822 5823 5823 5824
5824 5821 5818 5815 5811 5808 5805 5804 5803 5802 5800 5800 5798 5798 5798 5798 5798 5798 5798 5799 5800 5800 5800 5800 5801 5802 5804 5805 5806 5807 5808 5809 5810 5812 5813 5814 5814 5815 5816 5817 5818 5818 5818
5817 5814 5811 5808 5805 5801 5800 5799 5797 5795 5794 5793 5792 5792 5791 5791 5790 5790 5791 5791 5792 5792 5792 5793 5794 5795 5796 5797 5799 5800 5801 5802 5804 5805 5806 5807 5808 5809 5811 5811 5812 5813 5813
5809 5806 5803 5800 5798 5796 5793 5791 5789 5787 5786 5785 5784 5783 5782 5782 5781 5781 5782 5782 5783 5784 5784 5785 5786 5786 5788 5789 5790 5792 5793 5795 5796 5798 5799 5800 5802 5803 5805 5805 5806 5807 5808
5801 5798 5795 5792 5789 5786 5784 5782 5779 5777 5775 5774 5773 5773 5772 5771 5771 5771 5771 5772 5772 5773 5774 5775 5776 5777 5778 5779 5781 5783 5785 5787 5789 5791 5792 5793 5794 5796 5798 5799 5799 5800 5801